STARLINK-35536 (66261 NORAD) Tracking and Keplerian Element Data

This shows tracking and keplerian element data for the satellite.

Feedback or suggestion? Click here.




ElementValue
Catalog66261
NameSTARLINK-35536
Epoch Orbit906
Epoch Day354.12182849
Epoch Year2025
RAAN294.2319
Inclination53.161
Eccentricity0.0001258
Argument of Perigee72.7424
Mean Anonmoly287.3719
Mean Motion15.3962215
Decay Rate0.00022934
L11 66261U 25245AD 25354.12182849 .00022934 00000+0 58157-3 0 9991
L22 66261 53.1610 294.2319 0001258 72.7424 287.3719 15.39622150 9067



Live tracking and technical data element details for STARLINK-35536 (NORAD 66261). STARLINK-35536 can be tracked NOW for your location showing map with azimuth and elevation plus other details from your city location.







IsCatalogInMostPopularTable: catalog: 66261, numindb: 9
Update: records affected: 1



GetName: 66261 STARLINK-35536

Hit Count: updated at: Mon, 20 Apr 2026 10:13:50 GMT